Perryton, TX

12:40 AM CDT on March 23, 2017 (GMT -0500)
Perryton Ochiltree County

Weather History for KPYX - February, 2012

Change the Weather History Date:

Sunday, February 26, 2012

  Actual Average Record
Temperature  
Mean Temperature 46 °F -  
Max Temperature 59 °F 54 °F 80 °F (1989)
Min Temperature 32 °F 26 °F 10 °F (2014)
Degree Days  
Heating Degree Days 20    
Moisture  
Dew Point 15 °F    
Average Humidity 33    
Maximum Humidity 75    
Minimum Humidity 14    
Precipitation  
Precipitation 0.00 in - - ()
Sea Level Pressure  
Sea Level Pressure 29.92 in    
Wind  
Wind Speed 17 mph (ENE)    
Max Wind Speed 25 mph    
Max Gust Speed 33 mph    
Visibility 10 miles    
Events      
Averages and records for this station are not official NWS values.
T = Trace of Precipitation, MM = Missing Value Source: NWS Daily Summary

Daily Weather History Graph

Daily Weather History Graph

Search for Another Location

Airport or City:

Trip Planner

Search our weather history database for the weather conditions in past years. The results will help you decide how hot, cold, wet, or windy it might be!

Date:

Astronomy

Feb. 26, 2012 Rise Set
Actual Time 7:18 AM CST 6:34 PM CST
Civil Twilight 6:52 AM CST 7:00 PM CST
Nautical Twilight 6:22 AM CST 7:30 PM CST
Astronomical Twilight 5:52 AM CST 8:00 PM CST
Moon 9:23 AM CST (2/26) 11:23 PM CST (2/26)
Length of Visible Light 12h 08m
Length of Day
11h 16m
Waxing Crescent, 21% of the Moon is Illuminated
Feb 26
Waxing Crescent
Feb 29
First Quarter
Mar 8
Full
Mar 14
Last Quarter
Mar 22
New

Hourly Weather History & Observations

Time (CST) Temp. Windchill Dew Point Humidity Pressure Visibility Wind Dir Wind Speed Gust Speed Precip Events Conditions
12:15 AM 48.2 °F - 26.6 °F 43% 29.81 in 10.0 mi SSW 24.2 mph - N/A   Clear
12:35 AM 48.2 °F - 26.6 °F 43% 29.81 in 10.0 mi SSW 25.3 mph 33.4 mph N/A   Clear
12:55 AM 46.4 °F 38.3 °F 26.6 °F 46% 29.81 in 10.0 mi SSW 23.0 mph 27.6 mph N/A   Clear
1:15 AM 46.4 °F 38.5 °F 26.6 °F 46% 29.81 in 10.0 mi SSW 21.9 mph - N/A   Clear
1:35 AM 46.4 °F 38.7 °F 26.6 °F 46% 29.81 in 10.0 mi SSW 20.7 mph - N/A   Clear
1:55 AM 44.6 °F 36.9 °F 26.6 °F 49% 29.81 in 10.0 mi SSW 18.4 mph - N/A   Clear
2:15 AM 44.6 °F 37.8 °F 26.6 °F 49% 29.82 in 10.0 mi SSW 15.0 mph - N/A   Clear
2:35 AM 44.6 °F 37.8 °F 26.6 °F 49% 29.82 in 10.0 mi SSW 15.0 mph - N/A   Clear
2:55 AM 42.8 °F 35.1 °F 26.6 °F 53% 29.81 in 10.0 mi SSW 16.1 mph - N/A   Clear
3:15 AM 42.8 °F 34.8 °F 26.6 °F 53% 29.80 in 10.0 mi SSW 17.3 mph - N/A   Clear
3:35 AM 42.8 °F 34.8 °F 26.6 °F 53% 29.80 in 10.0 mi SSW 17.3 mph - N/A   Clear
3:55 AM 42.8 °F 35.8 °F 26.6 °F 53% 29.80 in 10.0 mi SSW 13.8 mph - N/A   Clear
4:15 AM 41.0 °F 33.1 °F 26.6 °F 57% 29.80 in 10.0 mi SSW 15.0 mph - N/A   Clear
4:35 AM 42.8 °F 36.6 °F 26.6 °F 53% 29.85 in 10.0 mi WSW 11.5 mph 21.9 mph N/A   Clear
5:15 AM 37.4 °F 34.9 °F 24.8 °F 60% 29.86 in 10.0 mi SSW 3.5 mph - N/A   Clear
5:35 AM 32.0 °F - 24.8 °F 75% 29.87 in 10.0 mi Calm Calm - N/A   Clear
5:55 AM 35.6 °F 32.8 °F 24.8 °F 65% 29.88 in 10.0 mi WSW 3.5 mph - N/A   Clear
6:15 AM 32.0 °F 24.8 °F 21.2 °F 64% 29.88 in 10.0 mi NNW 8.1 mph - N/A   Clear
6:35 AM 32.0 °F 24.2 °F 21.2 °F 64% 29.89 in 10.0 mi NNE 9.2 mph - N/A   Clear
6:55 AM 35.6 °F 26.6 °F 21.2 °F 56% 29.89 in 10.0 mi NNE 13.8 mph - N/A   Clear
7:15 AM 35.6 °F 26.2 °F 21.2 °F 56% 29.90 in 10.0 mi NE 15.0 mph - N/A   Clear
7:35 AM 35.6 °F 25.9 °F 21.2 °F 56% 29.91 in 10.0 mi NE 16.1 mph - N/A   Clear
8:15 AM 39.2 °F 30.8 °F 19.4 °F 45% 29.93 in 10.0 mi NE 15.0 mph - N/A   Clear
8:35 AM 41.0 °F 33.9 °F 17.6 °F 39% 29.94 in 10.0 mi NE 12.7 mph - N/A   Clear
8:55 AM 44.6 °F 37.4 °F 17.6 °F 34% 29.96 in 10.0 mi ENE 16.1 mph 21.9 mph N/A   Clear
9:15 AM 46.4 °F 39.2 °F 14.0 °F 27% 29.96 in 10.0 mi NE 18.4 mph 23.0 mph N/A   Clear
9:55 AM 50.0 °F - 6.8 °F 17% 29.98 in 10.0 mi NE 24.2 mph 32.2 mph N/A   Clear
10:15 AM 50.0 °F - 6.8 °F 17% 29.98 in 10.0 mi NE 24.2 mph 28.8 mph N/A   Clear
10:35 AM 50.0 °F - 3.2 °F 15% 29.99 in 10.0 mi NNE 23.0 mph 29.9 mph N/A   Clear
10:55 AM 51.8 °F - 5.0 °F 15% 29.99 in 10.0 mi NE 23.0 mph 31.1 mph N/A   Clear
11:15 AM 51.8 °F - 5.0 °F 15% 29.99 in 10.0 mi NNE 19.6 mph 27.6 mph N/A   Clear
11:35 AM 51.8 °F - 5.0 °F 15% 29.99 in 10.0 mi NE 16.1 mph 28.8 mph N/A   Clear
11:55 AM 53.6 °F - 5.0 °F 14% 29.99 in 10.0 mi NE 17.3 mph 23.0 mph N/A   Clear
12:15 PM 53.6 °F - 5.0 °F 14% 29.99 in 10.0 mi NE 17.3 mph 25.3 mph N/A   Clear
12:35 PM 53.6 °F - 5.0 °F 14% 29.98 in 10.0 mi NE 18.4 mph 23.0 mph N/A   Clear
12:55 PM 55.4 °F - 6.8 °F 14% 29.98 in 10.0 mi NE 17.3 mph 23.0 mph N/A   Clear
1:15 PM 55.4 °F - 6.8 °F 14% 29.97 in 10.0 mi NE 15.0 mph 21.9 mph N/A   Clear
1:35 PM 55.4 °F - 6.8 °F 14% 29.97 in 10.0 mi ENE 12.7 mph 20.7 mph N/A   Clear
1:55 PM 55.4 °F - 6.8 °F 14% 29.97 in 10.0 mi NE 11.5 mph 20.7 mph N/A   Clear
2:15 PM 55.4 °F - 8.6 °F 15% 29.97 in 10.0 mi ENE 16.1 mph 20.7 mph N/A   Clear
2:35 PM 57.2 °F - 8.6 °F 14% 29.97 in 10.0 mi ENE 15.0 mph 19.6 mph N/A   Clear
2:55 PM 57.2 °F - 8.6 °F 14% 29.97 in 10.0 mi NE 12.7 mph 17.3 mph N/A   Clear
3:15 PM 59.0 °F - 8.6 °F 14% 29.98 in 10.0 mi ENE 12.7 mph 18.4 mph N/A   Clear
3:35 PM 57.2 °F - 8.6 °F 14% 29.98 in 10.0 mi NE 10.4 mph 20.7 mph N/A   Clear
3:55 PM 57.2 °F - 8.6 °F 14% 29.98 in 10.0 mi NE 12.7 mph 18.4 mph N/A   Clear
4:15 PM 57.2 °F - 8.6 °F 14% 29.99 in 10.0 mi ENE 13.8 mph 17.3 mph N/A   Clear
4:35 PM 55.4 °F - 8.6 °F 15% 29.99 in 10.0 mi NE 12.7 mph 19.6 mph N/A   Clear
4:55 PM 55.4 °F - 8.6 °F 15% 30.00 in 10.0 mi NE 11.5 mph - N/A   Clear
5:15 PM 55.4 °F - 6.8 °F 14% 30.01 in 10.0 mi ENE 9.2 mph 18.4 mph N/A   Clear
5:35 PM 53.6 °F - 6.8 °F 15% 30.02 in 10.0 mi NE 13.8 mph - N/A   Clear
5:55 PM 53.6 °F - 6.8 °F 15% 30.03 in 10.0 mi NE 12.7 mph - N/A   Clear
6:15 PM 50.0 °F - 8.6 °F 19% 30.04 in 10.0 mi NE 10.4 mph - N/A   Clear
6:35 PM 46.4 °F 41.5 °F 10.4 °F 23% 30.05 in 10.0 mi NE 10.4 mph - N/A   Clear
6:55 PM 44.6 °F 39.2 °F 10.4 °F 25% 30.07 in 10.0 mi NE 10.4 mph - N/A   Clear
7:15 PM 42.8 °F 36.6 °F 10.4 °F 27% 30.08 in 10.0 mi NE 11.5 mph - N/A   Clear
7:35 PM 42.8 °F 36.6 °F 10.4 °F 27% 30.10 in 10.0 mi NE 11.5 mph - N/A   Clear
7:55 PM 42.8 °F 37.0 °F 10.4 °F 27% 30.11 in 10.0 mi NE 10.4 mph - N/A   Clear
8:15 PM 41.0 °F 35.2 °F 10.4 °F 29% 30.12 in 10.0 mi NE 9.2 mph - N/A   Clear
8:35 PM 41.0 °F 35.8 °F 10.4 °F 29% 30.12 in 10.0 mi ENE 8.1 mph - N/A   Clear
8:55 PM 39.2 °F 33.6 °F 10.4 °F 31% 30.14 in 10.0 mi ENE 8.1 mph - N/A   Clear
9:15 PM 37.4 °F 30.8 °F 10.4 °F 33% 30.15 in 10.0 mi ENE 9.2 mph - N/A   Clear
9:35 PM 37.4 °F 31.4 °F 10.4 °F 33% 30.17 in 10.0 mi ENE 8.1 mph - N/A   Clear
9:55 PM 35.6 °F 29.9 °F 10.4 °F 35% 30.18 in 10.0 mi NE 6.9 mph - N/A   Clear
10:15 PM 35.6 °F 28.0 °F 10.4 °F 35% 30.18 in 10.0 mi NE 10.4 mph - N/A   Clear
10:35 PM 37.4 °F 30.3 °F 8.6 °F 30% 30.19 in 10.0 mi NE 10.4 mph - N/A   Clear
10:55 PM 35.6 °F 28.6 °F 10.4 °F 35% 30.21 in 10.0 mi ENE 9.2 mph - N/A   Clear
11:15 PM 35.6 °F 29.2 °F 10.4 °F 35% 30.21 in 10.0 mi NE 8.1 mph - N/A   Clear
11:35 PM 37.4 °F 31.4 °F 10.4 °F 33% 30.22 in 10.0 mi NE 8.1 mph - N/A   Mostly Cloudy
11:55 PM 37.4 °F 31.4 °F 10.4 °F 33% 30.22 in 10.0 mi NE 8.1 mph - N/A   Overcast